Satellite: NOAA-11
Catalog number: 19531
Epoch time: 12144.74890605
Element set: 0931
Inclination: 098.7326 deg
RA of node: 230.4201 deg
Eccentricity: 0.0010581
Arg of perigee: 297.2215 deg
Mean anomaly: 062.7876 deg
Mean motion: 14.14966504 rev/day
Decay rate: -1.95e-06 rev/day^2
Epoch rev: 22105
Checksum: 287
Satellite: NOAA-12
Catalog number: 21263
Epoch time: 12144.97198193
Element set: 0438
Inclination: 098.7306 deg
RA of node: 166.7500 deg
Eccentricity: 0.0012883
Arg of perigee: 272.8886 deg
Mean anomaly: 087.0820 deg
Mean motion: 14.25495738 rev/day
Decay rate: 7.9e-07 rev/day^2
Epoch rev: 09310
Checksum: 325
Satellite: MET-3/5
Catalog number: 21655
Epoch time: 12144.76328311
Element set: 416
Inclination: 082.5548 deg
RA of node: 169.4420 deg
Eccentricity: 0.0013745
Arg of perigee: 029.3596 deg
Mean anomaly: 330.8296 deg
Mean motion: 13.17041206 rev/day
Decay rate: -2.60e-06 rev/day^2
Epoch rev: 99867
Checksum: 307
Satellite: MET-2/21
Catalog number: 22782
Epoch time: 12145.29347306
Element set: 425
Inclination: 082.5505 deg
RA of node: 051.4728 deg
Eccentricity: 0.0021457
Arg of perigee: 216.6789 deg
Mean anomaly: 143.2906 deg
Mean motion: 13.83684705 rev/day
Decay rate: 7.9e-07 rev/day^2
Epoch rev: 94586
Checksum: 323
Satellite: OKEAN-4
Catalog number: 23317
Epoch time: 12144.95680305
Element set: 0934
Inclination: 082.5415 deg
RA of node: 053.8578 deg
Eccentricity: 0.0023478
Arg of perigee: 072.5211 deg
Mean anomaly: 287.8565 deg
Mean motion: 14.83766225 rev/day
Decay rate: 1.041e-05 rev/day^2
Epoch rev: 95121
Checksum: 305
Satellite: NOAA-14
Catalog number: 23455
Epoch time: 12144.91587718
Element set: 0914
Inclination: 098.8258 deg
RA of node: 228.7181 deg
Eccentricity: 0.0010081
Arg of perigee: 033.3117 deg
Mean anomaly: 326.8687 deg
Mean motion: 14.13898810 rev/day
Decay rate: 8.0e-07 rev/day^2
Epoch rev: 89736
Checksum: 328
Satellite: NOAA-15
Catalog number: 25338
Epoch time: 12144.69339936
Element set: 0272
Inclination: 098.6871 deg
RA of node: 131.8332 deg
Eccentricity: 0.0010773
Arg of perigee: 174.2805 deg
Mean anomaly: 185.8474 deg
Mean motion: 14.25071849 rev/day
Decay rate: 3.00e-06 rev/day^2
Epoch rev: 72936
Checksum: 321
Satellite: RESURS
Catalog number: 25394
Epoch time: 12144.95442578
Element set: 0096
Inclination: 098.3204 deg
RA of node: 134.4707 deg
Eccentricity: 0.0001344
Arg of perigee: 356.1040 deg
Mean anomaly: 004.0125 deg
Mean motion: 14.24287633 rev/day
Decay rate: 3.1e-07 rev/day^2
Epoch rev: 72095
Checksum: 266
Satellite: FENGYUN1
Catalog number: 25730
Epoch time: 12144.93833419
Element set: 0625
Inclination: 098.8447 deg
RA of node: 104.3425 deg
Eccentricity: 0.0020564
Arg of perigee: 072.1362 deg
Mean anomaly: 288.2048 deg
Mean motion: 14.09530104 rev/day
Decay rate: 1.912e-05 rev/day^2
Epoch rev: 67119
Checksum: 284
Satellite: OKEAN-0
Catalog number: 25860
Epoch time: 12145.77616167
Element set: 635
Inclination: 097.9334 deg
RA of node: 108.9016 deg
Eccentricity: 0.0001100
Arg of perigee: 042.7613 deg
Mean anomaly: 317.3680 deg
Mean motion: 14.74195652 rev/day
Decay rate: 5.27e-06 rev/day^2
Epoch rev: 69112
Checksum: 289
Satellite: NOAA-16
Catalog number: 26536
Epoch time: 12144.67408034
Element set: 0756
Inclination: 099.0952 deg
RA of node: 186.4148 deg
Eccentricity: 0.0011046
Arg of perigee: 148.9579 deg
Mean anomaly: 211.2276 deg
Mean motion: 14.12740528 rev/day
Decay rate: 3.98e-06 rev/day^2
Epoch rev: 60157
Checksum: 316
Satellite: NOAA-17
Catalog number: 27453
Epoch time: 12144.71848778
Element set: 0714
Inclination: 098.3370 deg
RA of node: 172.9890 deg
Eccentricity: 0.0010892
Arg of perigee: 225.2264 deg
Mean anomaly: 134.8016 deg
Mean motion: 14.24434017 rev/day
Decay rate: 6.9e-07 rev/day^2
Epoch rev: 51527
Checksum: 311
Satellite: NOAA-18
Catalog number: 28654
Epoch time: 12144.75453639
Element set: 0190
Inclination: 099.0449 deg
RA of node: 102.6416 deg
Eccentricity: 0.0013516
Arg of perigee: 221.5626 deg
Mean anomaly: 138.4518 deg
Mean motion: 14.11650237 rev/day
Decay rate: -9.3e-07 rev/day^2
Epoch rev: 36111
Checksum: 289
Satellite: NOAA-19
Catalog number: 33591
Epoch time: 12144.82787889
Element set: 0382
Inclination: 098.8633 deg
RA of node: 084.9196 deg
Eccentricity: 0.0015061
Arg of perigee: 089.8753 deg
Mean anomaly: 270.4168 deg
Mean motion: 14.11338969 rev/day
Decay rate: 3.29e-06 rev/day^2
Epoch rev: 16957
Checksum: 365
/EX
SB KEPS @ AMSAT $ORB12145.M
Orbital Elements 12145.MISC
HR AMSAT ORBITAL ELEMENTS FOR MANNED AND MISCELLANEOUS SATELLITES
FROM WA5QGD FORT WORTH,TX May 24, 2012
Send SUBSCRIBE KEPS/UNSUBSCRIBE KEPS to majordomo(a)amsat.org only
BID: ORB12145.M
TO ALL RADIO AMATEURS BT
Satellite: HUBBLE
Catalog number: 20580
Epoch time: 12143.81672536
Element set: 4
Inclination: 028.4714 deg
RA of node: 309.5688 deg
Eccentricity: 0.0003363
Arg of perigee: 143.9013 deg
Mean anomaly: 216.2393 deg
Mean motion: 15.02492313 rev/day
Decay rate: 2.000e-05 rev/day^2
Epoch rev: 1091
Checksum: 246
Satellite: ISS
Catalog number: 25544
Epoch time: 12145.89835000
Element set: 621
Inclination: 051.6404 deg
RA of node: 238.8498 deg
Eccentricity: 0.0010979
Arg of perigee: 357.5754 deg
Mean anomaly: 110.1131 deg
Mean motion: 15.56418703 rev/day
Decay rate: 1.8238e-04 rev/day^2
Epoch rev: 77438
Checksum: 305
Satellite: CO-58
Catalog number: 28895
Epoch time: 12145.65446007
Element set: 182
Inclination: 097.9178 deg
RA of node: 012.9589 deg
Eccentricity: 0.0017127
Arg of perigee: 221.6722 deg
Mean anomaly: 138.3230 deg
Mean motion: 14.60616907 rev/day
Decay rate: 8.65e-06 rev/day^2
Epoch rev: 35022
Checksum: 317
Satellite: FALCON
Catalog number: 30776
Epoch time: 12144.94947814
Element set: 0354
Inclination: 035.4319 deg
RA of node: 064.8671 deg
Eccentricity: 0.0001287
Arg of perigee: 202.2443 deg
Mean anomaly: 157.8225 deg
Mean motion: 15.07400200 rev/day
Decay rate: 4.551e-05 rev/day^2
Epoch rev: 28659
Checksum: 287
Satellite: MAST
Catalog number: 31126
Epoch time: 12145.55229770
Element set: 464
Inclination: 097.8740 deg
RA of node: 158.0370 deg
Eccentricity: 0.0093571
Arg of perigee: 183.6567 deg
Mean anomaly: 176.3940 deg
Mean motion: 14.54144023 rev/day
Decay rate: 5.63e-06 rev/day^2
Epoch rev: 27083
Checksum: 298
Satellite: CAPE1
Catalog number: 31130
Epoch time: 12144.67303572
Element set: 0478
Inclination: 097.8820 deg
RA of node: 153.6040 deg
Eccentricity: 0.0100790
Arg of perigee: 199.4938 deg
Mean anomaly: 160.2383 deg
Mean motion: 14.52916345 rev/day
Decay rate: 5.99e-06 rev/day^2
Epoch rev: 27021
Checksum: 293
Satellite: COMPASS
Catalog number: 32787
Epoch time: 12144.66025615
Element set: 0310
Inclination: 097.8013 deg
RA of node: 206.5365 deg
Eccentricity: 0.0015785
Arg of perigee: 137.3609 deg
Mean anomaly: 222.8860 deg
Mean motion: 14.83916215 rev/day
Decay rate: 2.168e-05 rev/day^2
Epoch rev: 22017
Checksum: 289
Satellite: AAUSAT2
Catalog number: 32788
Epoch time: 12144.90483209
Element set: 0302
Inclination: 097.8043 deg
RA of node: 207.1439 deg
Eccentricity: 0.0015927
Arg of perigee: 136.7284 deg
Mean anomaly: 223.5183 deg
Mean motion: 14.84233109 rev/day
Decay rate: 2.325e-05 rev/day^2
Epoch rev: 22023
Checksum: 282
Satellite: DO-64
Catalog number: 32789
Epoch time: 12145.64983381
Element set: 317
Inclination: 097.8144 deg
RA of node: 209.8056 deg
Eccentricity: 0.0015750
Arg of perigee: 132.3481 deg
Mean anomaly: 227.9100 deg
Mean motion: 14.85669889 rev/day
Decay rate: 4.259e-05 rev/day^2
Epoch rev: 22038
Checksum: 337
Satellite: CO-66
Catalog number: 32791
Epoch time: 12144.64031200
Element set: 0302
Inclination: 097.8019 deg
RA of node: 206.2777 deg
Eccentricity: 0.0016514
Arg of perigee: 137.4927 deg
Mean anomaly: 222.7590 deg
Mean motion: 14.83348469 rev/day
Decay rate: 1.665e-05 rev/day^2
Epoch rev: 22010
Checksum: 291
Satellite: RS-30
Catalog number: 32953
Epoch time: 12145.54588335
Element set: 805
Inclination: 082.4989 deg
RA of node: 309.8408 deg
Eccentricity: 0.0018926
Arg of perigee: 002.7982 deg
Mean anomaly: 357.3197 deg
Mean motion: 12.43023730 rev/day
Decay rate: 1.0e-07 rev/day^2
Epoch rev: 18162
Checksum: 308
Satellite: TACSAT-3
Catalog number: 35001
Epoch time: 12121.72616188
Element set: 0001
Inclination: 040.4259 deg
RA of node: 351.8840 deg
Eccentricity: 0.0007146
Arg of perigee: 275.2650 deg
Mean anomaly: 085.0693 deg
Mean motion: 16.45157000 rev/day
Decay rate: 1.5204951e-01 rev/day^2
Epoch rev: 16699
Checksum: 280
Satellite: PHARMSAT
Catalog number: 35002
Epoch time: 12145.33428465
Element set: 906
Inclination: 040.4587 deg
RA of node: 219.6431 deg
Eccentricity: 0.0006527
Arg of perigee: 043.0987 deg
Mean anomaly: 317.0567 deg
Mean motion: 15.79976714 rev/day
Decay rate: 1.22624e-03 rev/day^2
Epoch rev: 17054
Checksum: 303
Satellite: METEOR-M
Catalog number: 35865
Epoch time: 12145.71601448
Element set: 437
Inclination: 098.6561 deg
RA of node: 200.4795 deg
Eccentricity: 0.0003243
Arg of perigee: 110.0903 deg
Mean anomaly: 250.0619 deg
Mean motion: 14.21862464 rev/day
Decay rate: -5.0e-08 rev/day^2
Epoch rev: 13926
Checksum: 273
Satellite: RS-38
Catalog number: 35869
Epoch time: 12145.67026256
Element set: 445
Inclination: 098.6521 deg
RA of node: 200.4341 deg
Eccentricity: 0.0005245
Arg of perigee: 113.7284 deg
Mean anomaly: 246.4440 deg
Mean motion: 14.22070906 rev/day
Decay rate: 6.1e-07 rev/day^2
Epoch rev: 13927
Checksum: 284
Satellite: JUGNU
Catalog number: 37839
Epoch time: 12144.36707117
Element set: 154
Inclination: 019.9625 deg
RA of node: 148.5937 deg
Eccentricity: 0.0018436
Arg of perigee: 312.6511 deg
Mean anomaly: 047.2322 deg
Mean motion: 14.12054918 rev/day
Decay rate: 6.19e-06 rev/day^2
Epoch rev: 3173
Checksum: 288
